• Join FlightAware (Why Join?)
  • Login
  • US Flag 
08:58AM EST


 

Airport Tracker/Info


-or-


 

Live Flight TrackerFlight Track Log ✈ DAL5996 ✈ 23-Apr-2013 ✈ KDFW - KDTW

Flight Track Log - Related Links

Times and Time Zones

All times are in EDT time to prevent confusion due to time zone crossing. See the DAL5996 flight status page for this flight to view local times or setup timezone preferences in your user account.

Time Position Orientation Groundspeed Altitude Reporting Facility
EDT Latitude Longitude Course Direction KTS MPH feet Rate Location/Type
06:41AM 32.8500 -97.0167 90° East 187 215 3,000  Level Dallas / Fort Worth TRACON
06:42AM 32.7833 -97.0000 168° South 247 284 6,000 3,120 Climbing Dallas / Fort Worth TRACON
06:43AM 32.8624 -96.5752 59° Northeast  Level FlightAware Approximate
06:43AM 32.7694 -96.8500 96° East 299 344 11,200  Level Fort Worth Center
06:44AM 32.9213 -96.4416 67° East  Level FlightAware Approximate
06:44AM 32.8025 -96.7558 67° East 294 338 14,400  Level Fort Worth Center
06:45AM 32.9688 -96.3018 80° East  Level FlightAware Approximate
06:45AM 32.8375 -96.6667 65° Northeast 320 368 17,000  Level Fort Worth Center
06:46AM 32.9833 -96.1520 90° East  Level FlightAware Approximate
06:46AM 32.8786 -96.5550 66° East 331 381 19,600  Level Fort Worth Center
06:47AM 32.9217 -96.4533 63° Northeast 358 412 21,700 2,040 Climbing Fort Worth Center
06:48AM 32.9667 -96.3389 65° Northeast 368 423 23,700 1,920 Climbing Fort Worth Center
06:49AM 32.9883 -96.2072 79° East 387 445 25,600 1,740 Climbing Fort Worth Center
06:50AM 33.0078 -96.0708 80° East 404 465 27,200 1,500 Climbing Fort Worth Center
06:51AM 33.0272 -95.9317 81° East 423 487 28,700 1,620 Climbing Fort Worth Center
06:52AM 33.0461 -95.7853 81° East 434 499 30,500 1,680 Climbing Fort Worth Center
06:53AM 33.0692 -95.6286 80° East 439 505 32,100 1,560 Climbing Fort Worth Center
06:54AM 33.0922 -95.4869 79° East 439 505 33,700 1,440 Climbing Fort Worth Center
06:55AM 33.1361 -95.3569 68° East 432 497 35,000 600 Climbing Fort Worth Center
06:56AM 33.1753 -95.2194 71° East 427 491 35,000  Level Fort Worth Center
06:57AM 33.2169 -95.0844 70° East 427 491 35,000  Level Fort Worth Center
06:58AM 33.2561 -94.9517 71° East 427 491 35,000  Level Fort Worth Center
06:59AM 33.2950 -94.8189 71° East 422 486 35,000  Level Fort Worth Center
07:00AM 33.3361 -94.6833 70° East 422 486 35,000  Level Fort Worth Center
07:01AM 33.3747 -94.5503 71° East 427 491 35,000  Level Fort Worth Center
07:02AM 33.4156 -94.4172 70° East 427 491 35,000  Level Fort Worth Center
07:03AM 33.4542 -94.2839 71° East 427 491 35,000  Level Fort Worth Center
07:04AM 33.4944 -94.1506 70° East 427 491 35,000  Level Fort Worth Center
07:06AM 33.5706 -93.9372 67° East 424 488 35,000  Level Memphis Center
07:07AM 33.6200 -93.8072 65° Northeast 419 482 35,000  Level Memphis Center
07:08AM 33.6694 -93.6794 65° Northeast 419 482 35,000  Level Memphis Center
07:09AM 33.7189 -93.5489 65° Northeast 419 482 35,000  Level Memphis Center
07:10AM 33.7678 -93.4208 65° Northeast 419 482 35,000  Level Memphis Center
07:11AM 33.8169 -93.2950 65° Northeast 414 476 35,000  Level Memphis Center
07:12AM 33.8656 -93.1689 65° Northeast 414 476 35,000  Level Memphis Center
07:13AM 33.9164 -93.0406 64° Northeast 414 476 35,000  Level Memphis Center
07:14AM 33.9631 -92.9092 67° East 414 476 35,000  Level Memphis Center
07:15AM 34.0114 -92.7828 65° Northeast 414 476 35,000  Level Memphis Center
07:16AM 34.0578 -92.6539 66° East 414 476 35,000  Level Memphis Center
07:17AM 34.0953 -92.5419 68° East 409 471 35,000  Level Memphis Center
07:18AM 34.1433 -92.4150 65° Northeast 409 471 35,000  Level Memphis Center
07:19AM 34.1956 -92.2733 66° East 415 478 35,000  Level Memphis Center
07:20AM 34.2456 -92.1461 65° Northeast 415 478 35,000  Level Memphis Center
07:21AM 34.2911 -92.0189 67° East 415 478 35,000  Level Memphis Center
07:22AM 34.3386 -91.8917 66° East 415 478 35,000  Level Memphis Center
07:23AM 34.3861 -91.7614 66° East 415 478 35,000  Level Memphis Center
07:24AM 34.4333 -91.6364 65° Northeast 410 472 35,000  Level Memphis Center
07:25AM 34.4783 -91.5061 67° East 410 472 35,000  Level Memphis Center
07:26AM 34.5275 -91.3781 65° Northeast 410 472 35,000  Level Memphis Center
07:27AM 34.5722 -91.2500 67° East 417 480 35,000  Level Memphis Center
07:28AM 34.6192 -91.1192 66° East 417 480 35,000  Level Memphis Center
07:29AM 34.6614 -91.0008 67° East 417 480 35,000  Level Memphis Center
07:30AM 34.7058 -90.8700 68° East 417 480 35,000  Level Memphis Center
07:31AM 34.7544 -90.7389 66° East 417 480 35,000  Level Memphis Center
07:32AM 34.8089 -90.6203 61° Northeast 409 471 35,000  Level Memphis Center
07:33AM 34.8967 -90.5419 36° Northeast 389 448 35,000  Level Memphis Center
07:34AM 34.9928 -90.4558 36° Northeast 383 441 35,000  Level Memphis Center
07:35AM 35.0825 -90.3800 35° Northeast 389 448 35,000  Level Memphis Center
07:36AM 35.1681 -90.3036 36° Northeast 384 442 35,000  Level Memphis Center
07:37AM 35.2556 -90.2275 35° Northeast 384 442 35,000  Level Memphis Center
07:38AM 35.3472 -90.1458 36° Northeast 387 445 35,000  Level Memphis Center
07:39AM 35.4367 -90.0639 37° Northeast 398 458 35,000  Level Memphis Center
07:40AM 35.5303 -89.9844 35° Northeast 398 458 35,000  Level Memphis Center
07:41AM 35.6094 -89.9128 36° Northeast 398 458 35,000  Level Memphis Center
07:42AM 35.7008 -89.8253 38° Northeast 397 457 35,000  Level Memphis Center
07:43AM 35.7922 -89.7453 35° Northeast 397 457 35,000  Level Memphis Center
07:44AM 35.8833 -89.6628 36° Northeast 392 451 35,000  Level Memphis Center
07:45AM 35.9664 -89.5850 37° Northeast 385 443 35,000  Level Memphis Center
07:46AM 36.0556 -89.5072 35° Northeast 385 443 35,000  Level Memphis Center
07:47AM 36.1425 -89.4267 37° Northeast 385 443 35,000  Level Memphis Center
07:48AM 36.2317 -89.3458 36° Northeast 390 449 35,000  Level Memphis Center
07:49AM 36.3267 -89.2647 35° Northeast 390 449 35,000  Level Memphis Center
07:50AM 36.4136 -89.1836 37° Northeast 403 464 35,000  Level Memphis Center
07:51AM 36.4961 -89.1050 37° Northeast 403 464 35,000  Level Memphis Center
07:52AM 36.5850 -89.0286 35° Northeast 403 464 35,000  Level Memphis Center
07:53AM 36.6736 -88.9444 37° Northeast 403 464 35,000  Level Memphis Center
07:54AM 36.7603 -88.8653 36° Northeast 398 458 35,000  Level Memphis Center
07:55AM 36.8489 -88.7858 36° Northeast 392 451 35,000  Level Memphis Center
07:56AM 36.9353 -88.7036 37° Northeast 392 451 35,000  Level Memphis Center
07:57AM 37.0239 -88.6264 35° Northeast 392 451 35,000  Level Memphis Center
07:58AM 37.1081 -88.5439 38° Northeast 387 445 35,000  Level Memphis Center
07:59AM 37.1967 -88.4664 35° Northeast 387 445 35,000  Level Memphis Center
08:00AM 37.2808 -88.3861 37° Northeast 387 445 35,000  Level Memphis Center
08:02AM 37.4342 -88.2331 38° Northeast 392 451 35,000  Level Indianapolis Center
08:03AM 37.5375 -88.1356 37° Northeast 393 452 35,000  Level Indianapolis Center
08:04AM 37.6272 -88.0503 37° Northeast 398 458 35,000  Level Indianapolis Center
08:05AM 37.7156 -87.9647 37° Northeast 397 457 35,000  Level Indianapolis Center
08:06AM 37.7931 -87.8911 37° Northeast 396 456 35,000  Level Indianapolis Center
08:07AM 37.8811 -87.8064 37° Northeast 396 456 35,000  Level Indianapolis Center
08:08AM 37.9903 -87.7172 33° Northeast 389 448 35,000  Level Indianapolis Center
08:09AM 38.0828 -87.6500 30° Northeast 381 438 35,000  Level Indianapolis Center
08:10AM 38.1742 -87.5842 30° Northeast 376 433 35,000  Level Indianapolis Center
08:11AM 38.2661 -87.5183 29° Northeast 375 432 35,000  Level Indianapolis Center
08:12AM 38.3586 -87.4517 29° Northeast 376 433 35,000  Level Indianapolis Center
08:13AM 38.4508 -87.3847 30° Northeast 376 433 35,000  Level Indianapolis Center
08:14AM 38.5428 -87.3164 30° Northeast 376 433 35,000  Level Indianapolis Center
08:15AM 38.6350 -87.2486 30° Northeast 376 433 35,000  Level Indianapolis Center
08:16AM 38.7242 -87.1747 33° Northeast 379 436 35,000  Level Indianapolis Center
08:17AM 38.8142 -87.1003 33° Northeast 380 437 35,000  Level Indianapolis Center
08:18AM 38.9039 -87.0242 33° Northeast 384 442 35,000  Level Indianapolis Center
08:19AM 38.9933 -86.9464 34° Northeast 386 444 35,000  Level Indianapolis Center
08:20AM 39.1008 -86.8547 33° Northeast 384 442 35,000  Level Indianapolis Center
08:21AM 39.1914 -86.7781 33° Northeast 386 444 35,000  Level Indianapolis Center
08:22AM 39.2808 -86.6992 34° Northeast 387 445 35,000  Level Indianapolis Center
08:23AM 39.3714 -86.6214 34° Northeast 388 447 35,000 -300 Level Indianapolis Center
08:24AM 39.4619 -86.5442 33° Northeast 388 447 34,400 -840 Descending Indianapolis Center
08:26AM 39.5533 -86.4633 34° Northeast 392 451 33,400 -1,020 Descending Indianapolis Center
08:27AM 39.6464 -86.3817 34° Northeast 400 460 32,400 -1,020 Descending Indianapolis Center
08:28AM 39.7400 -86.3003 34° Northeast 404 465 31,400 -720 Descending Indianapolis Center
08:29AM 39.8331 -86.2178 34° Northeast 404 465 31,000 -240 Descending Indianapolis Center
08:29AM 39.8950 -86.1639 34° Northeast 405 466 31,000  Level Chicago Center
08:30AM 40.0067 -86.0647 34° Northeast 407 468 31,000  Level Chicago Center
08:31AM 40.0397 -86.0358 34° Northeast 407 468 31,000 -300 Level Indianapolis Center
08:32AM 40.1342 -85.9528 34° Northeast 407 468 30,600 -600 Descending Indianapolis Center
08:32AM 40.1925 -85.9006 34° Northeast 402 463 30,000 -960 Descending Chicago Center
08:33AM 40.2822 -85.8197 34° Northeast 396 456 29,000 -1,020 Descending Chicago Center
08:34AM 40.3742 -85.7378 34° Northeast 396 456 28,000 -540 Descending Chicago Center
08:35AM 40.4750 -85.6464 35° Northeast 418 481 28,000 -180 Level Chicago Center
08:36AM 40.5997 -85.5314 35° Northeast 444 511 27,700 -960 Descending Chicago Center
08:38AM 40.7000 -85.4403 35° Northeast 445 512 26,100 -1,500 Descending Chicago Center
08:39AM 40.7942 -85.3544 35° Northeast 431 496 24,600 -1,200 Descending Chicago Center
08:40AM 40.8853 -85.2697 35° Northeast 416 479 23,700 -900 Descending Chicago Center
08:41AM 40.9772 -85.1872 34° Northeast 408 470 22,800 -960 Descending Chicago Center
08:42AM 41.0644 -85.0958 38° Northeast 405 466 21,800 -1,140 Descending Chicago Center
08:43AM 41.1644 -84.9892 39° Northeast 395 455 20,500 -1,140 Descending Chicago Center
08:44AM 41.2469 -84.9003 39° Northeast 389 448 19,500 -780 Descending Chicago Center
08:45AM 41.3308 -84.8097 39° Northeast 390 449 19,000 -420 Descending Chicago Center
08:46AM 41.4122 -84.7225 39° Northeast 384 442 18,700 -540 Descending Chicago Center
08:47AM 41.5036 -84.6508 30° Northeast 391 450 18,000 -540 Descending Chicago Center
08:48AM 41.5994 -84.5886 26° Northeast 394 453 17,700 -900 Descending Chicago Center
08:49AM 41.6669 -84.4419 58° Northeast 392 451 16,200 -1,380 Descending Chicago Center
08:50AM 41.7003 -84.3167 70° East 372 428 14,900 -1,200 Descending Chicago Center
08:50AM 41.7014 -84.2433 89° East 346 398 14,300 -1,140 Descending Cleveland Center
08:51AM 41.7158 -84.1831 72° East 340 391 13,700 -1,260 Descending Cleveland Center
08:52AM 41.7853 -84.0922 44° Northeast 323 372 12,400 -900 Descending Cleveland Center
08:53AM 41.8569 -84.0014 43° Northeast 334 384 12,000 -240 Descending Cleveland Center
08:54AM 41.9281 -83.9158 42° Northeast 339 390 12,000  Level Cleveland Center
08:55AM 42.0017 -83.8244 43° Northeast 344 396 12,000  Level Cleveland Center
08:56AM 42.0728 -83.7386 42° Northeast 344 396 12,000  Level Cleveland Center
08:57AM 42.1442 -83.6525 42° Northeast 344 396 12,000  Level Cleveland Center
08:58AM 42.2064 -83.5800 41° Northeast 324 373 12,100  Climbing Cleveland Center
08:58AM 42.2214 -83.5639 38° Northeast 271 312 12,000 -1,200 Descending Cleveland Center
08:59AM 42.2811 -83.5133 32° Northeast 278 320 10,700 -1,500 Descending Cleveland Center
09:00AM 42.3472 -83.4572 32° Northeast 260 299 9,200 -1,560 Descending Cleveland Center
09:01AM 42.4128 -83.4181 24° Northeast 253 291 7,600 -1,500 Descending Cleveland Center
09:02AM 42.4764 -83.3758 26° Northeast 233 268 6,100 -1,320 Descending Cleveland Center
09:03AM 42.4925 -83.3119 71° East 198 228 5,000 -1,080 Descending Cleveland Center
09:04AM 42.4603 -83.2653 133° Southeast 183 211 4,100 -900 Descending Cleveland Center